Back to catalog

IUS R/B(2)

AliveGEO
NORAD 28161·ROCKET BODY·🇺🇸 United States

Launched Feb 14, 2004 from Cape Canaveral Space Force Station

Loading…

TLE

FreshSource: Space-Track

Epoch: Sep 14, 2026, 11:55 UTC

1 28161U 04004D   26257.49704705  .00000095  00000-0  00000-0 0  9998
2 28161  12.2998  25.6051 0004236  27.4922 332.5582  0.99820535 26288

Track IUS R/B(2) in real time with AllMySat

Download on the App Store